Regional Weather Roundup
Issued by NWS

Home | Current Version | Previous Version | Graphics & Text | Print | Product List | Glossary On
Versions: 1 2 3 4 5 6 7 8 9 10 11 12 13 14 15 16 17 18 19 20 21 22 23 24 25 26 27 28 29 30 31 32 33 34 35 36 37 38 39 40 41 42 43 44 45 46 47 48 49 50
625
ASUS43 KMPX 251301
RWRMN
WEATHER ROUNDUP FOR MINNESOTA
NATIONAL WEATHER SERVICE TWIN CITIES/CHANHASSEN MN
700 AM CST SAT FEB 25 2017


NOTE: "FAIR" INDICATES FEW OR NO CLOUDS BELOW 12,000 FEET WITH NO
SIGNIFICANT WEATHER AND/OR OBSTRUCTIONS TO VISIBILITY. N/A MEANS
CURRENT SKY AND/OR WEATHER CONDITIONS ARE NOT AVAILABLE.

MNZ060>063-068>070-251400-
   Twin Cities Metro

CITY           SKY/WX    TMP DP  RH WIND       PRES   REMARKS
TWIN CITIES    CLEAR     14   3  61 NW15G23   29.93R WCI  -1
ST PAUL        CLEAR     15   5  64 NW17      29.94R WCI  -1
CRYSTAL        CLEAR     14   2  58 NW16      29.92R WCI  -2
BLAINE         CLEAR     16   7  67 NW13G18   29.91S WCI   2
LAKEVILLE      CLEAR     12   7  79 NW14G20   29.92R WCI  -3
EDEN PRAIRIE   CLEAR     15   3  59 NW14      29.92S WCI   0
SOUTH ST PAUL  PTCLDY    15   5  63 NW9       29.92S WCI   3
LAKE ELMO      FAIR      16   7  67 NW9G20    29.91R WCI   4
$$
MNZ001>005-007-008-013>017-022>024-027-028-251400-
   Northwest Minnesota

CITY           SKY/WX    TMP DP  RH WIND       PRES   REMARKS
BEMIDJI        CLEAR      6   2  86 W6        29.90F WCI  -5
HALLOCK        LGT SNOW  18  14  86 S12       29.87F WCI   5
ROSEAU         CLOUDY     9   5  85 S5        29.89F WCI   0
WARROAD        MOCLDY     5   1  85 CALM      29.89F
THIEF RVR FALL   N/A     13  10  88 S5        29.91  WCI   5
CROOKSTON      CLOUDY    19  16  86 S10       29.92F WCI   8
FOSSTON        CLOUDY    10   9  92 S6        29.91F WCI   1
DETROIT LAKES  MOCLDY    16  12  86 CALM      29.94S
MOORHEAD       CLOUDY    19  14  79 SW7       29.97F WCI  10
PARK RAPIDS    CLEAR      6   0  76 W5        29.90F WCI  -3
MAHNOMEN       CLOUDY    15  10  83 S6        29.92F WCI   6
$$
MNZ006-009>011-018-025>026-251400-
   North Central Minnesota

CITY           SKY/WX    TMP DP  RH WIND       PRES   REMARKS
BAUDETTE       CLEAR      3  -2  79 W3        29.87F
FLAG ISLAND    MOCLDY     1  -2  85 CALM      29.88F
INTL FALLS     CLEAR      1  -3  83 W6        29.86F WCI -10
WASKISH        CLEAR      5   1  85 CALM      29.89F
BIG FORK       CLEAR      3   0  85 NW3       29.87S
LONGVILLE      CLEAR      7   1  78 NW6       29.90S WCI  -3
GRAND RAPIDS   CLEAR      3   0  87 NW9       29.89S WCI -12
CRANE LAKE     CLEAR      3   0  85 CALM      29.86S
ORR            CLEAR      1  -2  85 CALM      29.81F
COOK           CLEAR      1   0  92 W7        29.83S WCI -11
WALKER         FAIR       6   1  82 W6        29.91S WCI  -5
$$
MNZ012-019>021-037-251400-
   Northeast Minnesota

CITY           SKY/WX    TMP DP  RH WIND       PRES   REMARKS
DULUTH         PTCLDY     5   1  83 NW16      29.79S WCI -14
ELY            CLOUDY     7   1  78 NW8       29.78S WCI  -6
HIBBING        CLEAR      4   0  83 NW16      29.83S WCI -15
EVELETH        LGT SNOW   6   0  76 NW8       29.82S WCI  -7
DULUTH HARBOR  PTCLDY    10   3  72 W12       29.88R WCI  -4
TWO HARBORS    CLEAR     10   3  72 NW7G18    29.77R WCI   0
SILVER BAY     CLEAR     10   3  72 NW12G23   29.73R WCI  -4
GRAND MARAIS     N/A     13   3  64 N31G55    29.65F WCI  -9
G MARAIS ARPRT CLOUDY     7   0  72 NW12G23   29.66R WCI  -9
$$
MNZ029>031-032-039>041-046>048-054>057-064-251400-
   West Central Minnesota

CITY           SKY/WX    TMP DP  RH WIND       PRES   REMARKS
FERGUS FALLS   MOCLDY    12  10  92 CALM      30.02F
WHEATON        CLEAR     14  10  85 SW5       30.01F WCI   6
MORRIS         CLEAR     16  10  79 W5        29.97F WCI   9
ALEXANDRIA     CLEAR     12   6  77 W5        29.95F WCI   4
ELBOW LAKE     FAIR      13  12  95 CALM      29.98F
WADENA         PTCLDY    10   5  79 W6        29.93F WCI   1
GLENWOOD       CLEAR     12   9  85 NW8       29.96F WCI   1
APPLETON       CLEAR     16  12  86 CALM      30.00F
BENSON         CLEAR     16   9  73 N6        30.01S WCI   7
ORTONVILLE       N/A     14   9  79 CALM      30.00S
MADISON        CLEAR     18  14  86 W5        30.02F WCI  11
WILLMAR        FAIR      18  12  79 NW10      29.99S WCI   6
$$
MNZ033>034-036-042>043-049>051-058-059-251400-
   Central Minnesota

CITY           SKY/WX    TMP DP  RH WIND       PRES   REMARKS
ST CLOUD       CLEAR     13   4  67 NW12      29.94S WCI  -1
SAUK CENTRE    FAIR      13   5  71 NW9       29.96S WCI   0
PAYNESVILLE    PTCLDY    14   8  75 NW9       29.97R WCI   2
AITKIN         CLEAR     10   0  61 NW7       29.89S WCI   0
PINE RIVER     CLEAR      7   1  78 NW5       29.95S WCI  -2
BRAINERD       CLEAR      8   1  73 NW6       29.92S WCI  -2
STAPLES        CLEAR     10   3  72 W7        29.93S WCI   0
LONG PRAIRIE   FAIR      12   5  73 W8        29.95R WCI   1
LITTLE FALLS   CLEAR     12   3  67 NW3       29.95S
LITCHFIELD     CLEAR     16   7  67 NW9       29.96S WCI   4
BUFFALO        CLEAR     14   4  65 NW10      29.96S WCI   1
MAPLE LAKE     CLEAR     15   6  69 NW8       29.95S WCI   4
HUTCHINSON     PTCLDY    16   8  72 NW12      29.97S WCI   3
$$
MNZ037-044-045-052-053-251400-
   East Central Minnesota

CITY           SKY/WX    TMP DP  RH WIND       PRES   REMARKS
PRINCETON      CLEAR     12   3  67 W9        29.92S WCI   0
MORA           CLEAR     12   5  73 NW12G17   29.92R WCI  -2
CAMBRIDGE      CLEAR     14   3  62 NW10G16   29.91R WCI   1
RUSH CITY      CLEAR     10   3  72 NW10      29.91R WCI  -3
MOOSE LAKE     CLEAR      9   3  78 NW8       29.86S WCI  -4
HINCKLEY       FAIR      12   5  73 NW6       29.89R WCI   3
CLOQUET        CLEAR      7   1  78 W12       29.83R WCI  -9
MCGREGOR       CLEAR      9   3  78 W7        29.88S WCI  -3
$$
MNZ071>073-080-081-089-090-097-098-251400-
   Southwest Minnesota

CITY           SKY/WX    TMP DP  RH WIND       PRES   REMARKS
MONTEVIDEO     CLEAR     16  10  79 N7        30.02F WCI   6
CANBY          CLEAR     17  13  84 CALM      30.02F
MARSHALL       CLEAR     14  10  84 NW9       30.02S WCI   2
REDWOOD FALLS  CLEAR     16   8  71 NW12      30.00R WCI   3
OLIVIA         CLEAR     18  12  79 NW10      29.99R WCI   6
PIPESTONE      CLEAR     16  10  79 NW7       30.00S WCI   6
WINDOM         CLEAR     16   9  73 NW12      29.99R WCI   3
WORTHINGTON    CLEAR     11   7  84 W10       30.01R WCI  -3
JACKSON        PTCLDY    14   9  79 NW13      29.99S WCI   0
TRACY          CLEAR     17  11  77 NW7       30.01R WCI   8
SLAYTON        CLEAR     14   9  80 W9        30.00S WCI   1
$$
MNZ065>067-074>077-082>085-091>093-251400-
   South Central Minnesota

CITY           SKY/WX    TMP DP  RH WIND       PRES   REMARKS
MANKATO          N/A     14   7  73 NW16      29.96R WCI  -2
NEW ULM        CLEAR     16   9  73 NW15      29.98R WCI   1
ST JAMES       CLEAR     14   9  79 W15       30.00R WCI  -1
FAIRMONT       CLEAR     12   7  80 NW17      29.99R WCI  -5
GLENCOE        CLEAR     17  10  75 NW12G20   29.95S WCI   4
FARIBAULT      PTCLDY    12   3  67 W10       29.92S WCI  -1
OWATONNA       CLEAR     10   3  72 NW14      29.91R WCI  -5
WASECA         CLEAR     12   5  73 NW13      29.95R WCI  -3
ALBERT LEA     CLEAR     12   7  79 NW8       29.92R WCI   1
$$
MNZ078>079-086>088-094>096-251400-
   Southeast Minnesota

CITY           SKY/WX    TMP DP  RH WIND       PRES   REMARKS
ROCHESTER      CLEAR      9   3  77 NW18      29.86S WCI -10
RED WING       CLEAR     14   1  57 NW7       29.90R WCI   4
STANTON        CLEAR     14   4  65 NW12      29.91R WCI   0
WINONA         CLEAR     14   7  73 NW10      29.89R WCI   1
AUSTIN         CLEAR     10   5  79 NW10      29.90R WCI  -3
PRESTON        CLEAR     10   2  72 NW14      29.86S WCI  -6
$$
ABBREVIATIONS USED IN REMARKS
   TC - TEMPERATURES IN CELSIUS
  WCI - WIND CHILL INDEX
   HX - HEAT INDEX
  VSB - VISIBILITY
$$




USA.gov is the U.S. government's official web portal to all federal, state and local government web resources and services.